CW8046 Weather Reports


time (UTC)temp
F
wind
direction
speed
knots
gust
knots
rain 1hr
in
rain 24hr
in
rain mn
in
humidity
%
barometer
mb
20260504050358 48 124 0.0 0.0 0.00 0.01 0.00 78 1018.2
20260504045858 48 124 0.0 0.0 0.00 0.01 0.00 78 1018.2
20260504045357 48 124 0.0 0.0 0.00 0.01 0.00 78 1018.2
20260504044856 48 124 0.0 0.0 0.00 0.01 0.00 78 1018.2
20260504044357 48 124 0.0 0.0 0.00 0.01 0.00 77 1018.3
20260504043858 48 124 0.0 0.0 0.00 0.01 0.00 77 1018.2
20260504043356 49 124 0.0 0.0 0.00 0.01 0.00 77 1018.2
20260504042854 49 124 0.0 0.0 0.00 0.01 0.00 77 1018.2
20260504042352 49 124 0.0 0.0 0.00 0.01 0.00 76 1018.2
20260504041851 49 124 0.0 0.0 0.00 0.01 0.00 76 1018.1
20260504041351 49 124 0.0 0.0 0.00 0.01 0.00 76 1018.2
20260504040843 50 124 0.0 0.0 0.00 0.01 0.00 76 1018.2
20260504040337 50 124 0.0 0.0 0.00 0.01 0.00 76 1018.2
20260504035831 50 124 0.0 0.0 0.00 0.01 0.01 76 1018.2
20260504035545 50 124 0.0 0.0 0.00 0.01 0.01 76 1018.2
20260504034818 50 124 0.0 0.0 0.00 0.01 0.01 76 1018.1
20260504034311 50 124 0.0 0.0 0.00 0.01 0.01 76 1018.1
20260504033805 51 124 0.0 0.0 0.00 0.01 0.01 75 1018.1
20260504033300 51 124 0.0 0.0 0.00 0.01 0.01 75 1018.1
20260504032753 51 124 0.0 0.0 0.00 0.01 0.01 74 1018.1
20260504032247 51 124 0.0 0.0 0.00 0.01 0.01 74 1018.1
20260504031742 51 124 0.0 0.0 0.00 0.01 0.01 74 1018.1
20260504031235 51 124 0.0 0.0 0.00 0.01 0.01 74 1018.1
20260504030951 52 124 0.0 0.0 0.00 0.01 0.01 74 1018.2
20260504030223 52 124 0.0 0.0 0.00 0.01 0.01 74 1018.2
20260504025717 52 124 0.0 0.0 0.00 0.01 0.01 74 1018.2
20260504025211 52 124 0.0 0.0 0.00 0.01 0.01 74 1018.3
20260504024706 53 124 0.0 0.0 0.00 0.01 0.01 73 1018.2
20260504024159 53 124 0.0 0.0 0.00 0.01 0.01 72 1018.2
20260504023655 53 124 0.0 0.0 0.00 0.01 0.01 72 1018.1
20260504023147 53 124 0.0 0.0 0.00 0.01 0.01 72 1018.1
20260504022901 54 124 0.0 0.0 0.00 0.01 0.01 72 1018.1
20260504022359 54 124 0.0 0.0 0.00 0.01 0.01 72 1018.0
20260504021629 54 124 0.0 0.0 0.00 0.01 0.01 71 1018.0
20260504021124 55 124 0.0 0.0 0.00 0.01 0.01 70 1018.0
20260504020617 55 124 0.0 0.0 0.00 0.01 0.01 70 1017.9
20260504020111 55 124 0.0 0.0 0.00 0.01 0.01 70 1017.8
20260504015826 55 124 0.0 0.0 0.00 0.01 0.01 69 1017.7
20260504015321 56 124 0.0 0.0 0.00 0.01 0.01 68 1017.7
20260504014553 56 124 0.0 0.0 0.00 0.01 0.01 67 1017.6
20260504014047 56 124 0.0 0.0 0.00 0.01 0.01 67 1017.6
20260504014020 57 124 0.0 0.9 0.00 0.01 0.01 67 1017.6
20260504013035 58 124 0.0 0.9 0.00 0.01 0.01 66 1017.3
20260504012529 58 124 0.0 0.0 0.00 0.01 0.01 64 1017.2
20260504012023 58 124 0.0 0.0 0.00 0.01 0.01 63 1017.2
20260504011517 59 124 0.0 0.0 0.00 0.01 0.01 62 1017.1
20260504011011 59 124 0.0 0.0 0.00 0.01 0.01 62 1017.1
20260504010507 60 124 0.0 0.0 0.00 0.01 0.01 62 1017.0
20260504005959 60 124 0.0 0.0 0.00 0.01 0.01 61 1016.9
20260504005453 61 124 0.0 0.0 0.00 0.01 0.01 60 1016.9
20260504004949 61 124 0.0 0.9 0.00 0.01 0.01 60 1016.9
20260504004443 62 124 0.0 0.9 0.00 0.01 0.01 59 1016.8
20260504003936 62 124 0.0 0.9 0.00 0.01 0.01 58 1016.7
20260504003650 63 124 0.0 0.9 0.00 0.01 0.01 57 1016.8
20260504002924 64 124 0.0 0.9 0.00 0.01 0.01 55 1016.7
20260504002417 65 107 0.0 0.9 0.00 0.01 0.01 54 1016.6
20260504001911 65 312 0.0 0.9 0.00 0.01 0.01 53 1016.7
20260504001405 66 312 0.0 0.9 0.00 0.01 0.01 51 1016.6
20260504000859 67 312 0.0 1.7 0.00 0.01 0.01 51 1016.6
20260504000354 67 312 0.9 1.7 0.00 0.01 0.01 50 1016.6
20260503235847 68 312 0.9 1.7 0.00 0.01 0.01 50 1016.5
20260503235342 69 312 0.0 1.7 0.00 0.01 0.01 48 1016.5
20260503234835 69 312 0.0 1.7 0.00 0.01 0.01 47 1016.5
20260503234329 69 312 0.0 1.7 0.00 0.01 0.01 43 1016.5
20260503233823 70 329 0.0 0.9 0.00 0.01 0.01 38 1016.5
20260503233317 70 329 0.9 2.6 0.00 0.01 0.01 35 1016.5
20260503232811 70 329 0.9 3.5 0.00 0.01 0.01 33 1016.5
20260503232512 71 305 0.9 2.6 0.00 0.01 0.01 32 1016.5
20260503232355 70 296 0.9 3.5 0.00 0.01 0.01 32 1016.5
20260503231253 71 345 0.9 3.5 0.00 0.01 0.01 33 1016.5
20260503230748 72 246 0.9 3.5 0.00 0.01 0.01 31 1016.5
20260503230721 72 234 0.9 3.5 0.00 0.01 0.01 30 1016.6
20260503225735 72 307 0.9 1.7 0.00 0.01 0.01 33 1016.6
20260503225229 72 331 0.9 5.2 0.00 0.01 0.01 31 1016.7
20260503224723 72 313 1.7 5.2 0.00 0.01 0.01 30 1016.7
20260503224217 73 49 1.7 6.1 0.00 0.01 0.01 29 1016.7
20260503223711 73 273 1.7 6.1 0.00 0.01 0.01 29 1016.8
20260503223205 73 335 1.7 7.0 0.00 0.01 0.01 30 1016.8
20260503222659 72 240 1.7 7.0 0.00 0.01 0.01 31 1016.9
20260503222153 72 271 1.7 5.2 0.00 0.01 0.01 29 1016.8
20260503221647 72 213 2.6 6.1 0.00 0.01 0.01 29 1016.8
20260503221142 72 217 2.6 6.1 0.00 0.01 0.01 29 1016.8
20260503220635 72 229 2.6 6.1 0.00 0.01 0.01 30 1016.8
20260503220129 72 215 1.7 6.1 0.00 0.01 0.01 30 1016.8
20260503215623 72 288 2.6 6.1 0.00 0.01 0.01 29 1016.7
20260503215117 72 44 1.7 5.2 0.00 0.01 0.01 32 1016.8
20260503214612 73 38 2.6 7.0 0.00 0.01 0.01 30 1016.8
20260503214113 73 281 2.6 7.8 0.00 0.01 0.01 29 1016.9
20260503213835 72 221 3.5 8.7 0.00 0.01 0.01 30 1016.8
20260503213110 72 225 2.6 8.7 0.00 0.01 0.01 30 1016.8
20260503212613 72 213 2.6 7.0 0.00 0.01 0.01 30 1016.9
20260503212111 72 51 3.5 9.6 0.00 0.01 0.01 32 1016.9
20260503211606 72 28 5.2 10.4 0.00 0.01 0.01 31 1016.9
20260503211108 72 232 4.3 10.4 0.00 0.01 0.01 29 1016.9
20260503210608 73 252 3.5 9.6 0.00 0.01 0.01 30 1016.8
20260503210108 73 304 2.6 7.8 0.00 0.01 0.01 29 1016.9
20260503205608 73 250 2.6 10.4 0.00 0.01 0.01 30 1016.9
20260503205105 73 319 3.5 10.4 0.00 0.01 0.01 31 1016.9
20260503204607 73 230 3.5 7.8 0.00 0.01 0.01 29 1017.0
20260503204104 73 320 2.6 7.8 0.00 0.01 0.01 30 1017.0
20260503204048 73 321 2.6 7.0 0.00 0.01 0.01 32 1017.0
20260503203106 72 243 2.6 7.0 0.00 0.01 0.01 30 1017.1
20260503202605 72 346 2.6 6.1 0.00 0.01 0.01 30 1017.2
20260503202105 72 319 3.5 10.4 0.00 0.01 0.01 30 1017.2
20260503201559 72 244 3.5 10.4 0.00 0.01 0.01 30 1017.3
20260503201053 72 267 3.5 8.7 0.00 0.01 0.01 32 1017.4
20260503200554 72 308 2.6 8.7 0.00 0.01 0.01 29 1017.4
20260503200052 71 255 2.6 8.7 0.00 0.01 0.01 30 1017.6
20260503195550 71 249 4.3 10.4 0.00 0.01 0.01 30 1017.7
20260503195309 71 255 3.5 10.4 0.00 0.01 0.01 29 1017.8
20260503194548 71 142 1.7 7.8 0.00 0.01 0.01 30 1017.8
20260503194046 71 197 2.6 7.8 0.00 0.01 0.01 30 1017.9
20260503193546 71 245 4.3 8.7 0.00 0.01 0.01 29 1018.0
20260503193046 71 281 5.2 9.6 0.00 0.01 0.01 30 1018.0
20260503192545 72 207 3.5 9.6 0.00 0.01 0.01 29 1018.2
20260503192305 72 224 1.7 7.8 0.00 0.01 0.01 31 1018.3
20260503191808 71 97 1.7 7.8 0.00 0.01 0.01 32 1018.4
20260503191044 71 316 3.5 10.4 0.00 0.01 0.01 30 1018.5
20260503190542 71 143 4.3 10.4 0.00 0.01 0.01 30 1018.6
20260503190044 71 211 3.5 8.7 0.00 0.01 0.01 29 1018.7
20260503185542 71 216 3.5 9.6 0.00 0.01 0.01 30 1018.8
20260503185043 71 227 4.3 9.6 0.00 0.01 0.01 31 1018.8
20260503184540 71 250 4.3 10.4 0.00 0.01 0.01 30 1018.9
20260503184302 71 327 3.5 10.4 0.00 0.01 0.01 32 1019.0
20260503183539 71 253 3.5 7.0 0.00 0.01 0.01 30 1019.0
20260503183038 71 197 2.6 7.8 0.00 0.01 0.01 32 1019.1
20260503182538 70 258 4.3 12.2 0.00 0.01 0.01 34 1019.2
20260503182037 70 240 4.3 12.2 0.00 0.01 0.01 33 1019.3
20260503181538 70 130 3.5 8.7 0.00 0.01 0.01 32 1019.2
20260503181038 70 211 3.5 8.7 0.00 0.01 0.01 34 1019.4
20260503180531 69 251 3.5 8.7 0.00 0.01 0.01 34 1019.4
20260503180026 69 248 3.5 8.7 0.00 0.01 0.01 35 1019.5
20260503175519 69 263 4.3 8.7 0.00 0.01 0.01 34 1019.5
20260503175235 69 217 3.5 8.7 0.00 0.01 0.01 35 1019.6
20260503174507 68 275 4.3 8.7 0.00 0.01 0.01 32 1019.6
20260503174003 68 192 3.5 9.6 0.00 0.01 0.01 32 1019.5
20260503173731 69 252 2.6 9.6 0.00 0.01 0.01 34 1019.5
20260503173003 69 331 2.6 6.1 0.00 0.01 0.01 35 1019.6
20260503172718 68 268 3.5 8.7 0.00 0.01 0.01 36 1019.7
20260503172224 68 271 3.5 8.7 0.00 0.01 0.01 36 1019.7
20260503171502 68 271 2.6 7.8 0.00 0.01 0.01 37 1019.6
20260503170958 69 99 1.7 6.1 0.00 0.01 0.01 33 1019.7
20260503170500 68 193 2.6 9.6 0.00 0.01 0.01 32 1019.8
20260503150936 64 42 1.7 5.2 0.00 0.01 0.01 45 1020.7
20260503150435 64 98 1.7 7.0 0.00 0.01 0.01 48 1020.7
20260503130924 53 43 0.9 4.3 0.01 0.12 0.01 85 1020.1
20260503130425 52 20 0.0 2.6 0.01 0.12 0.01 86 1020.1
20260503110411 48 228 0.9 2.6 0.00 0.24 0.00 85 1019.1
20260503090354 45 78 0.0 0.0 0.00 0.31 0.00 84 1017.8
20260503090119 45 78 0.0 0.0 0.00 0.31 0.00 84 1017.8
20260503081325 46 78 0.0 0.0 0.00 0.41 0.00 84 1017.4
20260503080821 46 78 0.0 0.0 0.00 0.43 0.00 84 1017.2
20260503080547 46 78 0.0 0.0 0.00 0.43 0.00 83 1017.3
20260503072812 46 78 0.0 0.0 0.00 0.49 0.00 83 1017.0
20260503072312 46 78 0.0 0.0 0.00 0.50 0.00 83 1017.1
20260503072038 46 78 0.0 0.0 0.00 0.51 0.00 83 1017.0
20260503071311 47 78 0.0 0.0 0.00 0.51 0.00 83 1016.9
20260503070812 47 78 0.0 0.0 0.00 0.51 0.00 83 1016.8
20260503070307 47 78 0.0 0.0 0.00 0.51 0.00 82 1016.9
20260503054649 49 78 0.0 0.0 0.00 0.55 0.00 82 1016.6
20260503054147 49 78 0.0 0.0 0.00 0.55 0.00 82 1016.7
20260503053646 49 78 0.0 0.0 0.00 0.55 0.00 82 1016.6
20260503053144 49 78 0.0 0.0 0.00 0.55 0.00 82 1016.7
20260503052907 50 78 0.0 0.0 0.00 0.55 0.00 81 1016.6
20260503052627 50 78 0.0 0.0 0.00 0.55 0.00 81 1016.6